Wind_Speed
14 14 15 15 16 16 16 16 15 14 13 12 11 9 8 7 6 6 6 6 6 6 7 7 7 7 8 8 8 7 7 6 6 6 6 6 6 5 5 5 5 5 6 6 5 6 5 5 4
14 14 15 16 16 16 16 16 16 14 13 12 11 10 9 7 7 6 6 6 6 6 8 8 7 8 8 8 7 7 7 7 6 6 6 5 5 5 4 4 5 6 6 5 5 5 6 5 5
13 13 14 16 16 16 16 16 16 14 14 13 12 11 9 8 8 7 6 6 6 7 8 8 8 8 8 8 7 7 7 7 6 6 5 5 4 4 4 4 4 5 5 5 5 5 6 6 5
13 13 14 15 16 16 16 16 16 15 15 14 12 11 10 9 8 7 6 7 8 8 8 9 8 8 8 8 7 7 7 7 7 6 5 5 4 3 3 4 5 5 5 5 5 5 6 5 5
12 13 14 15 15 15 15 17 16 16 15 14 13 11 10 10 9 9 9 8 8 8 8 9 9 8 7 7 7 6 6 6 6 5 5 4 3 3 3 4 4 5 4 4 4 4 5 5 4
12 13 14 15 15 15 16 15 15 15 14 13 13 12 11 10 9 9 9 9 9 8 9 8 8 7 7 7 6 6 6 6 5 5 4 4 3 3 2 2 3 4 4 4 4 3 4 4 5
12 13 14 14 14 15 15 15 15 14 13 13 12 12 11 11 10 9 9 9 9 9 9 8 8 8 7 7 6 6 6 5 5 4 4 4 3 3 2 2 2 3 2 3 3 3 2 3 4
11 12 12 13 14 14 15 15 14 14 13 13 13 12 12 11 10 9 9 10 10 9 9 8 8 7 7 6 6 6 5 5 4 4 4 4 4 3 2 2 2 2 2 2 3 2 2 3 4
9 11 12 13 13 13 14 14 13 13 12 12 12 11 10 10 9 9 10 10 10 9 9 8 8 7 7 7 7 6 5 5 5 4 4 3 3 3 2 1 1 1 1 2 2 2 2 3 4
9 10 12 12 13 13 13 13 13 13 12 12 11 11 10 9 9 9 9 9 9 9 9 8 8 7 7 6 6 6 6 5 5 5 4 4 3 3 2 1 1 1 1 1 2 2 2 2 4
9 10 11 12 13 13 13 13 12 12 11 11 11 11 11 10 10 10 10 9 9 9 9 8 8 7 7 7 7 7 6 6 6 5 4 4 3 2 2 2 1 1 2 1 2 1 1 2 3
7 9 9 10 11 12 13 13 12 12 12 11 12 11 11 11 11 11 10 10 9 9 9 8 8 7 7 7 7 6 6 6 5 5 4 3 3 3 2 2 2 1 1 1 3 2 3 3 3
6 6 7 9 10 11 11 12 12 11 11 11 11 11 11 11 11 11 10 10 10 9 9 9 8 8 8 7 7 6 6 5 5 5 4 4 4 3 3 2 1 1 1 0 1 2 3 3 4
6 5 6 8 9 10 11 10 10 10 10 10 11 10 11 11 11 10 10 9 9 9 8 8 8 8 8 8 7 7 6 6 5 5 4 4 4 4 4 3 2 2 1 1 1 0 1 2 3
5 3 4 7 8 9 9 8 8 9 9 9 11 10 10 10 10 10 9 9 8 8 8 8 8 8 8 8 7 7 6 6 5 5 4 4 5 5 5 5 4 3 3 3 2 1 1 1 1
3 3 3 4 6 8 8 8 7 7 8 8 9 10 9 9 9 9 9 9 8 8 8 8 8 8 8 7 6 6 6 5 5 5 5 5 5 5 5 5 4 3 3 3 3 2 1 1 1
3 2 1 2 5 6 6 6 5 5 6 7 8 8 9 9 9 9 9 9 8 8 8 8 8 8 7 7 7 6 6 6 6 5 5 5 5 5 5 5 5 4 3 3 2 2 1 2 1
4 3 2 1 2 4 5 5 4 3 4 5 6 7 8 8 8 8 8 8 8 8 7 7 7 7 7 6 6 6 6 6 6 5 5 4 4 4 5 5 5 4 4 3 3 3 2 3 3
6 4 3 2 1 1 3 4 3 2 2 3 4 5 6 7 7 7 7 7 7 7 7 6 7 6 6 6 6 5 5 5 5 6 5 5 4 4 5 5 5 4 4 4 3 3 3 4 4
7 5 4 4 3 2 2 2 1 0 0 1 2 3 4 5 5 5 6 6 6 6 6 6 6 6 6 6 5 4 4 5 5 5 6 6 5 4 4 4 4 4 4 3 3 3 3 4 4
9 7 7 6 5 3 4 3 2 1 1 0 2 2 2 4 4 5 5 5 5 6 5 5 5 5 5 5 5 4 4 4 4 5 5 5 5 4 4 4 4 5 5 4 3 3 4 4 4
12 10 9 8 7 6 4 4 2 1 1 1 1 2 1 2 3 4 4 4 5 5 4 5 4 4 5 4 4 3 3 3 4 5 5 4 4 4 4 5 5 5 5 4 4 4 4 5 5
14 12 11 10 10 8 6 6 3 3 2 1 1 1 1 1 1 2 2 3 3 4 4 4 3 4 4 4 3 2 3 3 3 3 3 3 4 4 4 5 5 5 6 5 4 4 5 5 6
17 15 14 13 12 11 9 9 6 5 5 4 3 3 2 2 1 0 1 1 2 2 3 3 3 3 3 3 3 2 2 2 2 3 3 4 4 4 4 5 5 6 6 6 5 5 6 6 6
18 17 16 14 14 12 11 11 7 6 6 5 5 4 4 4 3 2 2 2 2 1 1 2 1 2 2 3 3 2 2 2 2 3 4 4 4 5 6 6 6 6 6 6 6 6 6 6 7
20 19 18 16 16 13 13 11 8 7 7 6 6 5 5 5 5 4 3 3 3 2 2 2 1 1 2 2 2 2 2 2 2 3 4 4 5 6 7 7 8 8 7 7 6 7 7 7 8
21 20 19 19 18 16 14 12 9 9 8 7 6 6 6 6 6 6 5 5 4 4 4 3 2 2 2 2 2 2 3 3 3 4 4 5 5 6 7 8 8 8 8 8 8 7 7 8 8
20 20 20 20 19 19 16 13 10 10 9 8 8 8 8 7 7 7 6 6 5 5 5 4 4 3 3 3 3 3 3 4 4 5 5 6 7 7 7 7 8 8 9 9 9 9 8 8 9
22 21 21 20 21 20 18 15 12 11 11 10 10 9 9 9 10 9 8 8 7 7 7 6 6 5 4 4 5 4 5 5 5 6 7 8 8 9 8 9 9 9 9 10 10 10 10 10 11
23 22 22 22 22 20 18 15 13 13 13 13 12 11 10 10 10 10 9 9 9 9 8 7 7 6 6 6 6 6 6 6 6 7 8 9 10 10 10 10 10 10 10 11 12 11 11 12 13
Wind_Direction
71 68 64 67 67 64 65 65 65 62 59 59 59 60 62 73 78 88 91 86 85 86 94 96 89 88 93 103 105 104 96 95 98 102 107 110 109 110 120 136 143 148 155 159 158 161 166 168 174
70 67 66 68 66 64 64 66 65 63 60 57 56 57 60 69 74 81 86 84 85 90 95 95 93 93 95 102 105 102 94 94 94 100 108 111 112 116 122 133 144 154 160 164 169 176 175 177 180
68 67 67 65 62 63 62 65 65 63 58 55 57 59 61 65 68 71 79 86 94 92 96 98 96 97 98 100 103 101 97 100 99 101 106 110 111 117 125 137 144 153 164 168 176 182 188 185 182
66 69 68 63 60 60 59 64 65 63 59 56 57 63 63 64 69 73 80 90 97 93 95 99 97 97 97 97 96 98 98 99 101 100 102 109 110 115 128 142 154 162 171 178 176 177 184 190 194
66 68 68 65 62 59 58 59 60 59 57 56 59 61 63 66 70 79 83 93 95 94 94 97 96 96 94 90 89 93 96 98 98 96 93 93 102 122 131 155 167 165 180 182 183 189 196 203 212
63 68 71 65 61 59 56 56 59 60 53 53 57 61 65 69 72 79 85 87 92 94 96 96 93 91 88 85 87 91 93 96 97 97 95 91 106 129 138 131 163 171 180 186 195 206 204 209 221
67 68 66 62 60 59 58 55 55 59 54 55 58 61 69 74 74 78 81 82 88 94 95 94 92 90 86 82 83 87 91 92 97 99 98 98 106 116 117 115 154 171 177 191 191 199 211 225 226
71 66 63 59 61 61 60 56 54 55 58 60 59 58 64 69 72 79 82 84 87 87 88 89 86 85 84 82 79 81 88 89 90 95 98 100 107 109 113 105 137 180 195 195 189 205 225 235 230
73 64 62 59 60 63 62 56 52 51 55 58 56 53 57 64 70 77 81 82 83 83 81 82 79 80 79 79 74 75 78 81 80 85 99 108 107 99 105 117 137 178 199 193 196 209 212 226 230
72 66 63 63 62 64 62 56 52 51 54 56 56 53 54 62 71 74 78 79 80 77 76 75 74 73 75 77 78 76 74 75 76 80 87 97 100 95 97 91 105 128 145 170 186 192 203 240 241
76 70 67 63 62 60 61 58 55 53 53 57 58 58 60 68 74 75 76 76 77 73 70 70 71 71 76 80 80 77 73 75 79 79 84 88 84 87 80 86 90 105 128 155 179 184 206 235 254
78 74 69 64 62 57 55 57 58 54 51 55 59 64 65 66 71 75 75 75 74 70 68 70 70 70 72 78 81 80 79 80 78 74 82 87 78 80 78 73 75 83 143 209 204 222 234 251 263
85 77 70 67 62 58 55 56 58 54 50 52 56 60 61 63 70 72 71 70 72 69 67 66 65 64 68 75 77 79 81 82 77 74 78 89 87 78 77 68 56 27 2 335 278 279 269 269 266
88 82 69 64 59 58 57 55 56 51 49 52 54 57 60 63 67 69 67 67 67 64 63 64 65 63 65 74 73 76 77 82 82 85 84 92 89 78 67 53 42 35 54 78 88 89 301 288 270
104 96 81 67 55 49 53 55 51 47 46 50 53 56 60 61 64 67 67 67 66 63 63 63 65 64 65 73 77 79 77 81 82 84 90 87 78 70 63 56 56 72 81 83 84 93 73 13 329
135 124 91 62 51 46 47 53 54 50 49 53 54 58 61 60 60 64 65 65 65 65 65 66 66 66 65 68 74 83 84 77 74 80 88 85 77 69 61 57 52 62 71 71 66 60 16 334 324
172 165 111 60 47 46 41 48 61 53 50 56 60 62 63 64 63 62 65 67 66 66 68 71 68 68 64 66 74 84 87 82 75 73 78 76 71 69 62 57 53 57 58 53 46 40 339 326 332
203 205 234 319 43 38 33 41 62 60 55 63 65 65 67 69 69 66 65 66 65 64 64 71 70 69 65 71 79 81 83 80 74 73 76 73 69 64 58 57 54 53 47 41 27 9 13 7 351
223 225 236 244 191 14 23 26 51 63 50 46 58 67 70 71 70 66 62 62 62 59 58 66 67 66 67 72 77 78 80 76 73 72 70 70 68 64 61 56 55 49 41 37 26 8 3 9 2
226 228 232 229 231 276 317 345 360 164 28 5 49 61 69 70 71 67 60 59 59 56 57 65 66 65 63 67 74 77 77 67 66 64 62 64 67 64 56 48 43 36 29 21 15 2 360 12 11
231 234 236 234 242 271 299 318 302 227 207 296 41 59 70 64 70 66 60 57 58 54 57 60 62 62 60 61 70 77 78 71 67 62 58 57 59 58 52 40 28 20 22 20 11 5 358 356 1
232 236 235 237 249 258 281 293 296 288 230 197 22 32 60 61 63 64 66 59 55 53 51 54 57 55 56 53 60 68 76 73 66 57 50 43 41 41 40 32 22 16 12 9 1 356 347 349 352
229 234 237 238 247 254 264 276 281 283 262 247 311 347 349 16 46 54 53 54 49 48 51 55 56 50 50 47 53 71 76 67 56 46 35 24 16 12 13 14 10 5 360 351 339 337 343 348 346
231 234 239 240 246 253 261 269 267 274 270 257 267 299 304 292 289 301 4 10 25 38 43 45 41 39 39 39 48 51 50 45 39 25 14 8 3 1 359 356 354 352 349 343 329 322 329 334 336
232 235 238 242 246 252 258 265 264 268 270 268 270 272 283 283 287 286 305 310 327 353 6 17 22 20 24 33 40 39 28 20 8 9 8 7 358 353 346 344 344 343 337 331 327 321 323 325 328
234 236 237 242 247 248 255 262 264 267 270 273 269 268 279 284 283 285 295 301 295 295 305 325 340 350 6 8 5 9 13 6 355 354 355 354 349 342 338 340 342 345 340 330 324 317 318 319 321
233 235 236 242 247 249 254 259 263 265 268 274 271 267 272 284 283 284 285 287 291 284 282 289 298 303 320 328 339 341 338 333 333 338 338 336 333 329 329 331 332 334 333 329 323 321 320 320 319
233 234 236 241 248 251 252 256 263 262 261 270 276 271 272 279 281 282 282 282 279 278 275 276 285 285 297 308 314 316 317 313 313 322 326 323 322 325 325 324 325 324 322 319 319 321 318 315 314
232 234 237 243 249 253 256 257 260 254 256 263 268 270 273 276 278 273 272 275 271 271 273 273 278 281 284 285 291 290 294 301 314 318 318 318 318 318 317 313 316 315 313 309 311 312 314 312 311
234 237 240 245 249 253 259 259 258 255 253 258 262 268 271 274 273 267 264 267 266 266 268 271 269 273 277 282 287 289 289 292 300 303 306 309 311 310 307 307 308 307 307 305 303 303 306 307 306
Height
5881 5880 5880 5880 5879 5878 5876 5875 5874 5874 5873 5873 5872 5872 5872 5873 5874 5876 5874 5872 5872 5873 5873 5873 5873 5873 5873 5873 5874 5874 5875 5875 5875 5876 5876 5877 5878 5878 5878 5879 5879 5880 5881 5882 5883 5884 5885 5886 5887
5883 5883 5883 5882 5880 5879 5878 5877 5876 5875 5875 5874 5873 5873 5873 5873 5873 5873 5873 5873 5873 5874 5874 5874 5874 5874 5874 5874 5875 5875 5875 5876 5876 5877 5877 5878 5878 5879 5879 5879 5880 5881 5882 5883 5884 5884 5885 5886 5887
5885 5884 5884 5883 5881 5880 5879 5878 5877 5877 5876 5875 5875 5874 5874 5874 5874 5874 5874 5874 5874 5875 5875 5875 5875 5875 5875 5875 5876 5876 5876 5877 5877 5878 5878 5878 5879 5879 5879 5880 5880 5881 5882 5883 5883 5884 5885 5886 5887
5887 5886 5886 5885 5882 5882 5881 5880 5879 5878 5877 5877 5876 5876 5875 5875 5875 5875 5875 5875 5875 5876 5876 5876 5876 5876 5876 5876 5877 5877 5877 5877 5878 5878 5879 5879 5879 5879 5880 5880 5880 5881 5882 5883 5883 5884 5885 5886 5887
5889 5888 5887 5885 5884 5883 5882 5881 5880 5879 5879 5878 5878 5878 5877 5877 5876 5876 5876 5876 5876 5877 5877 5877 5877 5877 5877 5877 5877 5877 5878 5878 5878 5879 5879 5879 5879 5879 5880 5880 5881 5881 5882 5883 5883 5884 5885 5886 5887
5891 5889 5888 5886 5885 5885 5884 5883 5882 5881 5881 5880 5880 5879 5878 5878 5878 5878 5878 5878 5878 5878 5878 5878 5878 5878 5878 5878 5878 5878 5878 5879 5879 5879 5879 5879 5879 5879 5880 5880 5881 5882 5882 5883 5883 5884 5884 5885 5886
5893 5891 5889 5888 5887 5886 5886 5885 5884 5884 5883 5882 5882 5881 5880 5880 5880 5880 5880 5879 5879 5879 5879 5879 5879 5879 5879 5879 5879 5879 5879 5879 5879 5879 5880 5880 5880 5881 5881 5881 5881 5882 5882 5883 5883 5884 5884 5885 5885
5894 5894 5891 5890 5889 5889 5888 5887 5886 5886 5885 5884 5884 5883 5882 5882 5882 5881 5881 5881 5881 5881 5881 5881 5881 5880 5880 5880 5880 5880 5880 5880 5880 5880 5880 5881 5881 5881 5881 5882 5882 5882 5882 5882 5883 5883 5884 5884 5885
5896 5896 5894 5893 5891 5890 5890 5889 5888 5888 5887 5886 5885 5884 5884 5883 5883 5883 5883 5883 5883 5883 5882 5882 5882 5882 5881 5881 5881 5880 5880 5880 5880 5880 5881 5881 5881 5881 5882 5882 5882 5881 5881 5882 5882 5883 5883 5883 5884
5897 5897 5896 5895 5894 5892 5891 5891 5890 5890 5889 5888 5887 5886 5885 5885 5885 5884 5884 5884 5884 5884 5884 5883 5883 5883 5882 5882 5882 5881 5881 5881 5881 5881 5881 5881 5881 5881 5881 5882 5882 5881 5881 5881 5882 5882 5883 5883 5883
5898 5898 5898 5897 5896 5894 5893 5892 5892 5891 5891 5890 5889 5888 5887 5886 5886 5886 5886 5885 5885 5885 5885 5884 5884 5884 5883 5883 5883 5882 5882 5882 5882 5882 5882 5881 5881 5881 5881 5882 5882 5881 5881 5881 5881 5882 5882 5883 5883
5900 5899 5899 5898 5897 5896 5895 5894 5894 5893 5893 5892 5891 5889 5889 5888 5887 5887 5887 5887 5887 5886 5886 5886 5885 5885 5884 5884 5883 5883 5883 5882 5882 5882 5882 5882 5882 5882 5882 5882 5881 5881 5880 5880 5881 5881 5882 5882 5882
5901 5901 5900 5900 5899 5898 5897 5896 5896 5895 5894 5894 5893 5891 5891 5890 5889 5889 5889 5889 5888 5888 5887 5887 5886 5886 5885 5885 5884 5884 5883 5883 5883 5883 5883 5882 5882 5882 5882 5881 5881 5880 5880 5879 5879 5880 5881 5881 5882
5902 5902 5902 5901 5900 5900 5899 5898 5898 5897 5896 5896 5895 5894 5893 5892 5891 5891 5891 5890 5889 5889 5888 5888 5887 5887 5886 5885 5885 5885 5884 5884 5884 5883 5883 5883 5883 5883 5882 5881 5880 5879 5879 5878 5879 5879 5880 5880 5881
5903 5903 5903 5903 5902 5901 5901 5900 5899 5899 5898 5898 5896 5895 5894 5894 5893 5893 5892 5892 5891 5890 5889 5889 5888 5888 5887 5887 5886 5886 5885 5885 5884 5884 5884 5884 5883 5883 5882 5881 5880 5880 5879 5879 5879 5880 5880 5880 5880
5904 5904 5904 5904 5903 5902 5903 5902 5901 5900 5900 5899 5898 5897 5896 5895 5894 5894 5893 5893 5892 5891 5891 5890 5889 5889 5888 5888 5887 5886 5886 5886 5885 5885 5885 5885 5884 5884 5883 5882 5881 5880 5880 5880 5880 5880 5881 5880 5880
5904 5904 5904 5904 5903 5903 5903 5902 5902 5901 5900 5900 5899 5898 5897 5896 5896 5895 5895 5894 5893 5893 5892 5891 5891 5890 5889 5888 5888 5887 5887 5887 5886 5886 5886 5885 5885 5885 5884 5883 5883 5882 5882 5881 5881 5881 5881 5880 5880
5904 5904 5904 5904 5904 5904 5903 5903 5903 5902 5901 5901 5900 5899 5898 5898 5897 5896 5896 5895 5895 5894 5893 5892 5892 5891 5891 5890 5889 5888 5888 5888 5887 5887 5887 5886 5886 5886 5885 5884 5884 5883 5883 5882 5882 5882 5881 5881 5880
5903 5904 5904 5904 5904 5903 5903 5903 5903 5902 5902 5901 5900 5900 5899 5898 5898 5897 5897 5896 5896 5895 5894 5893 5893 5892 5891 5891 5890 5890 5889 5889 5888 5888 5888 5887 5887 5886 5886 5885 5885 5884 5884 5883 5883 5882 5882 5881 5881
5902 5903 5903 5904 5903 5903 5903 5903 5903 5902 5902 5901 5901 5900 5900 5899 5898 5898 5898 5897 5897 5896 5895 5894 5894 5893 5892 5892 5891 5891 5890 5890 5889 5889 5888 5888 5888 5887 5887 5886 5885 5885 5884 5884 5883 5883 5882 5881 5880
5901 5902 5902 5903 5903 5903 5903 5903 5903 5903 5902 5902 5901 5901 5900 5900 5899 5898 5898 5898 5897 5897 5896 5895 5895 5894 5893 5892 5892 5891 5891 5891 5890 5890 5889 5889 5888 5888 5887 5886 5886 5885 5885 5884 5883 5883 5882 5881 5880
5900 5900 5901 5901 5902 5902 5903 5903 5903 5902 5902 5902 5901 5901 5900 5900 5899 5899 5898 5898 5898 5897 5896 5896 5895 5894 5894 5893 5892 5892 5892 5892 5891 5891 5890 5890 5889 5888 5888 5887 5886 5886 5885 5884 5883 5882 5882 5881 5880
5898 5898 5899 5900 5900 5901 5901 5902 5903 5902 5902 5902 5901 5901 5901 5900 5899 5899 5898 5898 5898 5897 5896 5896 5895 5895 5894 5893 5893 5892 5892 5892 5892 5891 5891 5890 5889 5889 5888 5887 5887 5885 5884 5883 5883 5882 5881 5880 5880
5896 5897 5897 5898 5899 5900 5900 5901 5902 5902 5901 5902 5901 5901 5901 5900 5900 5899 5898 5898 5897 5897 5896 5896 5895 5895 5894 5894 5893 5893 5892 5892 5892 5891 5891 5890 5890 5889 5888 5887 5886 5885 5884 5883 5882 5881 5881 5880 5879
5893 5894 5895 5895 5896 5898 5899 5898 5901 5900 5900 5900 5901 5900 5900 5900 5899 5898 5897 5897 5897 5897 5896 5896 5895 5895 5894 5894 5893 5893 5892 5892 5892 5891 5891 5890 5889 5889 5888 5887 5886 5885 5884 5883 5882 5881 5880 5879 5878
5889 5891 5893 5894 5894 5896 5896 5896 5899 5899 5899 5899 5899 5899 5899 5899 5898 5897 5897 5896 5896 5896 5896 5895 5895 5894 5894 5893 5893 5892 5892 5892 5891 5891 5890 5889 5889 5888 5887 5886 5885 5884 5883 5882 5881 5880 5879 5878 5877
5886 5888 5890 5891 5891 5893 5894 5895 5897 5897 5897 5897 5898 5898 5898 5897 5897 5896 5896 5895 5895 5895 5895 5894 5894 5894 5893 5893 5892 5892 5891 5891 5891 5890 5889 5889 5888 5887 5886 5885 5884 5883 5882 5881 5880 5879 5877 5876 5875
5883 5884 5886 5887 5888 5889 5891 5893 5895 5895 5895 5896 5896 5896 5896 5896 5895 5895 5894 5894 5894 5894 5894 5893 5893 5892 5892 5892 5891 5891 5891 5890 5890 5889 5889 5888 5887 5886 5885 5884 5883 5882 5881 5879 5878 5877 5876 5875 5874
5879 5881 5882 5884 5885 5886 5887 5892 5892 5893 5893 5894 5894 5894 5894 5894 5893 5893 5892 5892 5892 5892 5892 5892 5891 5891 5891 5890 5890 5889 5889 5889 5888 5888 5887 5886 5885 5884 5883 5883 5882 5880 5879 5878 5877 5876 5875 5873 5872
5875 5876 5879 5881 5882 5883 5884 5890 5889 5890 5890 5891 5891 5891 5891 5891 5891 5890 5890 5890 5890 5890 5890 5890 5889 5889 5889 5889 5888 5887 5887 5887 5887 5886 5885 5885 5884 5883 5882 5881 5880 5879 5877 5876 5875 5874 5873 5871 5870